Home   Weather   Culiacán   Past weeks

Flag for Mexico Past Weather in Culiacán, Sinaloa, Mexico — Yesterday and Last 2 Weeks

Now
61 °F

Passing clouds.


Feels Like: 61 °F
Forecast: 48 / 77 °F
Wind: No wind

Location: Culiacan - Sin.

Current Time: Jan 18, 2017 at 1:13:09 am

Latest Report: Jan 17, 2017 at 9:40 pm


Visibility: 10 mi

Pressure: 30.06 "Hg

Humidity: 68%

Dew Point: 50 °F

Location of CuliacánLocation

Past Weather in Culiacán — Graph

°F

Culiacán Temperature Yesterday

Maximum temperature yesterday: 75 °F (at 2:50 pm)
Minimum temperature yesterday: 48 °F (at 6:08 am)
Average temperature yesterday: 65 °F

High & Low Weather Summary for the Past Weeks

 TemperatureHumidityPressure
High88 °F (Jan 3, 2:43 pm)100% (Jan 4, 6:50 am)30.18 "Hg (Jan 4, 6:50 am)
Low48 °F (Jan 17, 6:08 am)29% (Jan 17, 4:41 pm)29.79 "Hg (Jan 5, 3:44 pm)
Average71 °F63%29.97 "Hg
* Reported Jan 2 9:40 pm — Jan 17 9:40 pm, Culiacán, Weather by CustomWeather, © 2017

Note: Actual official high and low records may vary slightly from our data, if they occured in-between our weather recording intervals... More about our weather records

Advertising

Culiacán Weather History for the Previous 24 Hours

Scroll right to see more
 ConditionsComfort  
Time TempWeatherWind HumidityBarometerVisibility
9:40 pm
Tue, Jan 17
61 °FPassing clouds.No wind68%30.06 "Hg10 mi
8:40 pm61 °FClear.No wind68%30.04 "Hg10 mi
7:41 pm63 °FClear.No wind59%30.03 "Hg10 mi
6:42 pm66 °FClear.6 mph49%29.99 "Hg10 mi
5:40 pm72 °FSunny.7 mph38%29.98 "Hg10 mi
4:41 pm75 °FSunny.7 mph29%29.97 "Hg10 mi
3:45 pm75 °FSunny.7 mph31%29.96 "Hg10 mi
2:50 pm75 °FSunny.8 mph31%29.96 "Hg10 mi
1:43 pm73 °FSunny.5 mph36%30.00 "Hg10 mi
12:40 pm73 °FSunny.No wind38%30.00 "Hg10 mi
11:40 am70 °FSunny.6 mph43%30.05 "Hg10 mi
10:41 am68 °FSunny.No wind53%30.06 "Hg10 mi
8:40 am59 °FSunny.No wind77%30.05 "Hg10 mi
7:44 am52 °FScattered clouds.No wind94%30.06 "Hg10 mi
6:40 am50 °FClear.No wind94%30.01 "Hg6 mi
6:08 am48 °FFog.No wind94%30.01 "Hg3 mi
Weather by CustomWeather, © 2017

See weather overviewHow to use our weather pages